Regional Weather Roundup
Issued by NWS Cleveland, OH

Home | Current Version | Previous Version | Graphics & Text | Print | Product List | Glossary On
Versions: 1 2 3 4 5 6 7 8 9 10 11 12 13 14 15 16 17 18 19 20 21 22 23 24 25 26 27 28 29 30 31 32 33 34 35 36 37 38 39 40 41 42 43 44 45 46 47 48 49 50
000
ASUS41 KCLE 231002
RWRCLE
OHIO REGIONAL WEATHER ROUNDUP
NATIONAL WEATHER SERVICE CLEVELAND, OH
600 AM EDT WED MAY 23 2018

NOTE: "FAIR" INDICATES FEW OR NO CLOUDS BELOW 12,000 FEET WITH NO
SIGNIFICANT WEATHER AND/OR OBSTRUCTIONS TO VISIBILITY.

OHZ001>008-015>018-024>027-034-035-043-044-231100-
   NORTHWEST OHIO

CITY           SKY/WX    TMP DP  RH WIND       PRES   REMARKS
DEFIANCE       FAIR      53  51  93 CALM      30.13R FOG
FINDLAY        FAIR      56  54  93 N5        30.11R
TOLEDO EXPRESS FAIR      54  54 100 CALM      30.11R
TOLEDO EXEC    FAIR      54  52  93 CALM      30.12R FOG
LIMA           FAIR      55  55 100 N3        30.12R
$$

OHZ009>014-019>023-028>033-038-089-231100-
   NORTHEAST OHIO

CITY           SKY/WX    TMP DP  RH WIND       PRES   REMARKS
CLE-HOPKINS    CLOUDY    56  52  86 N7        30.11R
CLE-LAKEFRONT  CLOUDY    54  51  90 N8        30.09R
CUY CO. ARPT   NOT AVBL
LORAIN-ELYRIA  FAIR      53  48  83 N5        30.11R
ASHTABULA      CLOUDY    52  52 100 NW6       30.08R FOG
AKRON-CANTON   CLOUDY    58  52  80 NW8       30.08R
WOOSTER        CLOUDY    57  53  86 N8        30.10R
MANSFIELD      FAIR      54  53  97 N3        30.10R
YOUNGSTOWN     CLOUDY    54  52  93 NW9       30.07R
$$

OHZ042-051>053-060>062-070>072-077>081-231100-
  SOUTHWEST OHIO

CITY           SKY/WX    TMP DP  RH WIND       PRES   REMARKS
CINC-COVINGTON FAIR      63  58  83 N7        30.09R
CINC-LUNKEN    FAIR      60  60 100 CALM      30.09S FOG
HAMILTON       FAIR      60  60 100 CALM      30.10R
DAYTON         MOCLDY    61  61 100 N5        30.11R
WRIGHT-PAT AFB NOT AVBL
DAYTON GENERAL CLOUDY    63  58  83 N5        30.09R
WILMINGTON     FAIR      61  60  97 N7        30.09R
$$

OHZ036-037-039>041-045>050-054>059-063>069-073>076-082>088-231100-
  CENTRAL AND SOUTHEAST OHIO

CITY           SKY/WX    TMP DP  RH WIND       PRES   REMARKS
COLUMBUS       FAIR      63  56  78 NW10      30.08R
OSU AIRPORT    CLOUDY    62  57  83 N8        30.09R
BOLTON FIELD   FAIR      61  59  94 NW6       30.09S
RICKENBACK AFB FAIR      60  60  99 MISG      30.08R
NEWARK         CLOUDY    63  60  90 NW3       30.07R
MARION         CLOUDY    58  55  90 N7        30.11R
LANCASTER      CLOUDY    63  62  97 NW6       30.08R
ZANESVILLE     MOCLDY    61  59  93 CALM      30.07R FOG
NEW PHILLY     NOT AVBL
$$



USA.gov is the U.S. government's official web portal to all federal, state and local government web resources and services.